TimeCST,TemperatureF,Dew PointF,Humidity,Sea Level PressureIn,VisibilityMPH,Wind Direction,Wind SpeedMPH,Gust SpeedMPH,PrecipitationIn,Events,Conditions,WindDirDegrees,DateUTC
12:54 AM,50.0,25.0,38,29.85,10.0,South,17.3,-,N/A,,Clear,180,2012-12-06 06:54:00
1:54 AM,50.0,25.0,38,29.83,10.0,South,21.9,-,N/A,,Clear,180,2012-12-06 07:54:00
2:54 AM,51.1,25.0,36,29.83,10.0,South,15.0,-,N/A,,Clear,190,2012-12-06 08:54:00
3:54 AM,50.0,25.0,38,29.84,10.0,South,15.0,-,N/A,,Partly Cloudy,190,2012-12-06 09:54:00
4:54 AM,48.0,25.0,41,29.84,10.0,South,9.2,-,N/A,,Clear,190,2012-12-06 10:54:00
5:54 AM,43.0,25.0,49,29.86,10.0,South,6.9,-,N/A,,Clear,170,2012-12-06 11:54:00
6:54 AM,42.1,24.1,49,29.87,10.0,South,6.9,-,N/A,,Mostly Cloudy,180,2012-12-06 12:54:00
7:54 AM,42.1,28.9,60,29.89,10.0,West,3.5,-,0.00,Rain,Light Rain,260,2012-12-06 13:54:00
8:54 AM,46.0,30.0,54,29.90,10.0,WNW,5.8,-,0.00,,Overcast,290,2012-12-06 14:54:00
9:54 AM,48.9,35.1,59,29.92,10.0,North,10.4,-,N/A,,Overcast,10,2012-12-06 15:54:00
10:54 AM,50.0,30.9,48,29.94,10.0,North,19.6,-,N/A,,Overcast,360,2012-12-06 16:54:00
11:54 AM,50.0,30.0,46,29.94,10.0,North,18.4,-,N/A,,Scattered Clouds,360,2012-12-06 17:54:00
12:54 PM,50.0,28.9,44,29.94,10.0,North,18.4,-,N/A,,Clear,360,2012-12-06 18:54:00
1:54 PM,50.0,28.0,43,29.93,10.0,North,20.7,-,N/A,,Overcast,360,2012-12-06 19:54:00
2:54 PM,50.0,28.0,43,29.94,10.0,North,19.6,-,N/A,,Overcast,350,2012-12-06 20:54:00
3:54 PM,48.9,27.0,43,29.95,10.0,North,19.6,-,N/A,,Overcast,350,2012-12-06 21:54:00
4:54 PM,46.9,27.0,46,29.95,10.0,North,10.4,-,N/A,,Overcast,360,2012-12-06 22:54:00
5:54 PM,46.0,28.9,51,29.96,10.0,North,6.9,-,N/A,,Overcast,360,2012-12-06 23:54:00
7:54 PM,43.0,26.1,51,30.00,10.0,North,4.6,-,N/A,,Mostly Cloudy,350,2012-12-07 01:54:00
8:54 PM,42.1,27.0,55,30.00,10.0,North,3.5,-,0.00,Rain,Light Rain,360,2012-12-07 02:54:00
9:54 PM,41.0,27.0,57,30.01,10.0,NW,3.5,-,0.00,,Overcast,320,2012-12-07 03:54:00
10:54 PM,41.0,27.0,57,30.01,10.0,Calm,Calm,-,N/A,,Overcast,0,2012-12-07 04:54:00
11:54 PM,39.0,27.0,62,30.01,10.0,North,3.5,-,N/A,,Overcast,360,2012-12-07 05:54:00